Regional Weather Roundup
Issued by NWS

Home | Current Version | Previous Version | Text Only | Print | Product List | Glossary Off
Versions: 1 2 3 4 5 6 7 8 9 10 11 12 13 14 15 16 17 18 19 20 21 22 23 24 25 26 27 28 29 30 31 32 33 34 35 36 37 38 39 40 41 42 43 44 45 46 47 48 49 50

000
ASUS43 KBIS 242231
RWRND
NORTH DAKOTA REGIONAL WEATHER ROUNDUP
NATIONAL WEATHER SERVICE EASTERN NORTH DAKOTA/GRAND FORKS ND
500 PM CDT SAT JUN 24 2017

  NOTE: "FAIR" INDICATES FEW OR NO CLOUDS BELOW 12,000 FEET WITH NO
  SIGNIFICANT WEATHER AND/OR OBSTRUCTIONS TO VISIBILITY.

NDZ001>003-009>011-017-242300-
...NORTHWEST NORTH DAKOTA...

CITY           SKY/WX    TMP DP  RH WIND       PRES   REMARKS
WILLISTON      FAIR      69  35  28 N15G29    30.28S
MINOT          CLOUDY    58  41  53 NW17      30.24R
MINOT AFB      CLOUDY    57  40  51 NW16      30.23R
$$

NDZ018>021-031>035-040>046-242300-
...SOUTHWEST NORTH DAKOTA...

CITY           SKY/WX    TMP DP  RH WIND       PRES   REMARKS
BISMARCK       CLOUDY    65  40  39 NW18G26   30.23S
DICKINSON      FAIR      63  28  26 N17G31    30.26R
GARRISON         N/A     61  38  42 NW22G30   30.23S
HETTINGER      FAIR      70  30  22 N21G28    30.27R
$$

NDZ004>008-012>016-024-026-027-054-242300-
...NORTHEAST NORTH DAKOTA...

CITY           SKY/WX    TMP DP  RH WIND       PRES   REMARKS
GRAND FORKS    CLOUDY    54  49  83 NW18G30   30.09R
GRAND FORKS AF CLOUDY    52  50  93 N16       30.12R
DEVILS LAKE    LGT RAIN  54  43  66 N18G26    30.17R
$$

NDZ022-023-025-028>030-036>039-047>053-242300-
...SOUTHEAST NORTH DAKOTA...

CITY           SKY/WX    TMP DP  RH WIND       PRES   REMARKS
JAMESTOWN      CLOUDY    57  45  64 NW24      30.16R
FARGO          CLOUDY    59  47  64 NW22G29   30.09R
WAHPETON       CLOUDY    61  43  51 NW20G26   30.10R
$$




USA.gov is the U.S. government's official web portal to all federal, state and local government web resources and services.